Regional Weather Roundup
Issued by NWS

Home | Current Version | Previous Version | Graphics & Text | Print | Product List | Glossary On
Versions: 1 2 3 4 5 6 7 8 9 10 11 12 13 14 15 16 17 18 19 20 21 22 23 24 25 26 27 28 29 30 31 32 33 34 35 36 37 38 39 40 41 42 43 44 45 46 47 48 49 50
000
ASUS43 KOAX 250402
RWRNE

WEATHER ROUNDUP FOR NEBRASKA
NATIONAL WEATHER SERVICE OMAHA NE
1100 PM CDT MON JUL 24 2017

NOTES: SATELLITE DATA IS BEING USED TO AUGMENT CLOUD COVER ABOVE
       12000 FEET.
       "FAIR" INDICATES FEW OR NO CLOUDS BELOW 12,000 FEET WITH NO
       SIGNIFICANT WEATHER AND/OR OBSTRUCTIONS TO VISIBILITY.


NEZ001>004-019>022-054>056-250500-
NEBRASKA PANHANDLE

CITY           SKY/WX    TMP DP  RH WIND       PRES   REMARKS
SCOTTSBLUFF    CLOUDY    76  55  48 E8        29.93R
ALLIANCE       CLEAR     81  51  35 S17G29    29.92R
CHADRON        CLEAR     82  53  36 CALM      29.87R
GORDON         FAIR      77  54  45 CALM      29.91R
KIMBALL        CLEAR     74  53  46 S12       30.04R
SIDNEY         CLOUDY    76  55  48 S20G26    30.01R
$$

NEZ057>060-069>072-079>082-250500-
SOUTHWEST NEBRASKA

CITY           SKY/WX    TMP DP  RH WIND       PRES   REMARKS
NORTH PLATTE   CLOUDY    87  54  32 SE12G20   29.91R
IMPERIAL       CLOUDY    86  58  38 S13G22    29.99S
LEXINGTON      MOCLDY    77  62  60 SE10      29.96R
MCCOOK         CLOUDY    84  55  36 S13       29.96R
OGALLALA       CLEAR     79  55  43 S14       29.94R
$$

NEZ005>010-023>029-035>040-094-250500-
NORTH CENTRAL NEBRASKA

CITY           SKY/WX    TMP DP  RH WIND       PRES   REMARKS
VALENTINE      CLEAR     79  62  56 SE16      29.89R
AINSWORTH      PTCLDY    79  66  65 SE16      29.93R
BROKEN BOW     CLEAR     80  70  71 SE12      29.95R
O`NEILL        LGT RAIN  73  67  80 NE15G23   30.02R
ORD            CLEAR     81  68  64 SE15G22   29.93R
THEDFORD       CLEAR     82  55  40 S10       29.93R
$$

NEZ041-046>049-061>064-073>077-083>087-250500-
SOUTH CENTRAL NEBRASKA

CITY           SKY/WX    TMP DP  RH WIND       PRES   REMARKS
GRAND ISLAND   CLEAR     79  71  76 SE14      29.97R
AURORA         CLEAR     73  70  90 SE7       29.97R
HASTINGS       CLEAR     80  70  71 S12       29.98R
HEBRON         CLEAR     80  73  77 SE7       29.98R
HOLDREGE       PTCLDY    72  64  74 SE7       29.98R
KEARNEY        CLEAR     78  70  76 SE15      29.97R
YORK           PTCLDY    77  70  78 SE12      29.98R
$$

NEZ011>018-030>034-042>045-250500-
NORTHEAST NEBRASKA

CITY           SKY/WX    TMP DP  RH WIND       PRES   REMARKS
NORFOLK        MOCLDY    76  66  71 SE14      29.95R
ALBION         MOCLDY    78  70  77 SE6       29.97R
BLAIR          CLEAR     76  67  73 SE8       29.99F
COLUMBUS       CLOUDY    77  68  73 SE9       29.97R
FREMONT        CLEAR     77  66  69 SE10      29.98F
TEKAMAH        CLEAR     74  66  76 SE10      29.97S
WAYNE          MOCLDY    74  72  92 S8        29.95S
$$

NEZ050>053-065>068-078-088>093-250500-
SOUTHEAST NEBRASKA

CITY           SKY/WX    TMP DP  RH WIND       PRES   REMARKS
LINCOLN        CLEAR     80  66  62 SE17G23   29.98R
OMAHA EPPLEY   CLEAR     78  66  66 SE12      29.99R
BEATRICE       CLEAR     79  69  71 SE7       29.99R
FALLS CITY     CLEAR     72  68  87 SE3       30.00R
NEBRASKA CITY  CLEAR     74  69  84 SE8       30.01R
PLATTSMOUTH    PTCLDY    75  66  75 SE9       30.00S
$$

NEZ044-045-051>053-067-250500-
OMAHA AREA

CITY           SKY/WX    TMP DP  RH WIND       PRES   REMARKS
OMAHA EPPLEY   CLEAR     78  66  66 SE12      29.99R
BLAIR          CLEAR     76  67  73 SE8       29.99F
FREMONT        CLEAR     77  66  69 SE10      29.98F
MILLARD        CLEAR     77  69  76 SE9       29.98F
OFFUTT AFB     CLEAR     73  66  78 E8        29.99R
PLATTSMOUTH    PTCLDY    75  66  75 SE9       30.00S
WAHOO          FAIR      72  68  88 SE7       29.98S
$$




USA.gov is the U.S. government's official web portal to all federal, state and local government web resources and services.